Regional Weather Roundup
Issued by NWS Charleston, WV

Home | Current Version | Previous Version | Text Only | Print | Product List | Glossary On
Versions: 1 2 3 4 5 6 7 8 9 10 11 12 13 14 15 16 17 18 19 20 21 22 23 24 25 26 27
000
ASUS41 KRLX 170010
RWRRLX
West Virginia Regional Weather Roundup
National Weather Service Charleston WV
800 PM EDT WED APR 16 2014

Note: "fair" indicates few or no clouds below 12,000 feet with no
significant weather and/or obstructions to visibility.

WVZ003-170100-
Northern Panhandle of West Virginia

CITY           SKY/WX    TMP DP  RH WIND       PRES   REMARKS
WHEELING       PTCLDY    39  13  34 E8        30.38S
$$

WVZ009-170100-
Northwest West Virginia

CITY           SKY/WX    TMP DP  RH WIND       PRES   REMARKS
PARKERSBURG    CLEAR     47  18  31 E8        30.36S
$$

WVZ006-170100-
Western West Virginia

CITY           SKY/WX    TMP DP  RH WIND       PRES   REMARKS
HUNTINGTON     PTCLDY    48  19  31 E6        30.28F
$$

WVZ015-170100-
West Central West Virginia

CITY           SKY/WX    TMP DP  RH WIND       PRES   REMARKS
CHARLESTON     PTCLDY    49  20  31 NE5       30.29F
$$

WVZ031-170100-
North Central West Virginia

CITY           SKY/WX    TMP DP  RH WIND       PRES   REMARKS
CLARKSBURG     CLEAR     43  19  38 N5        30.34F
MORGANTOWN     PTCLDY    43  16  33 N8        30.37S
$$

WVZ035-042-045-170100-
South Central West Virginia

CITY           SKY/WX    TMP DP  RH WIND       PRES   REMARKS
BECKLEY        CLEAR     47  21  35 SE7       30.28S
BLUEFIELD      CLEAR     48  16  27 VRB3      30.28S
LEWISBURG      CLEAR     45  12  26 SE6       30.32R
$$

WVZ047-170100-
Northern Mountains of West Virginia

CITY           SKY/WX    TMP DP  RH WIND       PRES   REMARKS
ELKINS         CLEAR     45  14  28 VRB3      30.32S
$$

WVZ052-170100-
Eastern Panhandle of West Virginia

CITY           SKY/WX    TMP DP  RH WIND       PRES   REMARKS
MARTINSBURG    CLEAR     43  14  31 E3        30.45S
PETERSBURG     CLEAR     50  21  32 CALM      30.40S
$$



USA.gov is the U.S. government's official web portal to all federal, state and local government web resources and services.